Regional Weather Roundup
Issued by NWS Green Bay, WI

Home | Current Version | Previous Version | Text Only | Print | Product List | Glossary On
Versions: 1 2 3 4 5 6 7 8 9 10 11 12 13 14 15 16 17 18 19 20 21 22 23 24 25 26 27 28 29 30 31 32 33 34 35 36 37 38 39 40 41 42 43 44 45 46 47 48 49 50
000
ASUS43 KGRB 041800
RWRGRB

NORTH-CENTRAL AND NORTHEAST WISCONSIN REGIONAL WEATHER ROUNDUP
NATIONAL WEATHER SERVICE GREEN BAY WI
100 PM CDT TUE AUG 04 2015

WIZ005-009-010>012-018-019-041900-
NORTH CENTRAL WISCONSIN

CITY           SKY/WX    TMP DP  RH WIND       PRES   REMARKS
IRONWOOD       PTSUNNY   64  54  68 NW7       29.97S
MANITOWISH WTR NOT AVBL
ARBOR VITAE    NOT AVBL
EAGLE RIVER    NOT AVBL
LAND O LAKES   NOT AVBL
RHINELANDER    PTSUNNY   72  50  45 NW9G17    29.97F
PHILLIPS       NOT AVBL
ANTIGO         NOT AVBL
TOMAHAWK       NOT AVBL
MERRILL        NOT AVBL
$$

WIZ013-073-041900-
NORTHEAST WISCONSIN

CITY           SKY/WX    TMP DP  RH WIND       PRES   REMARKS
IRON MOUNTAIN  PTSUNNY   69  55  60 NW9       29.93S
MARINETTE      MOSUNNY   72  52  49 NW8       29.91S
$$

WIZ017-030-035>037-045-041900-
CENTRAL WISCONSIN

CITY           SKY/WX    TMP DP  RH WIND       PRES   REMARKS
MEDFORD        NOT AVBL
WAUSAU         PTSUNNY   73  49  42 NW12G24   29.96R
MOSINEE        NOT AVBL
MARSHFIELD     CLOUDY    72  49  44 NW10      29.99S
WISC RAPIDS    PTSUNNY   75  48  38 NW12      29.99F
STEVENS POINT  NOT AVBL
WAUPACA        NOT AVBL
SHAWANO        NOT AVBL
CLINTONVILLE   NOT AVBL
$$

WIZ038-039-048-051-041900-
FOX VALLEY

CITY           SKY/WX    TMP DP  RH WIND       PRES   REMARKS
NWS GREEN BAY  PTSUNNY   75  56  51 NW10      29.94S
APPLETON       NOT AVBL
OSHKOSH        MOSUNNY   74  51  44 NW9G18    29.96S
FOND DU LAC    PTSUNNY   77  53  43 N14G20    29.97S
$$

WIZ022-050-052-041900-
EAST CENTRAL WISCONSIN

CITY           SKY/WX    TMP DP  RH WIND       PRES   REMARKS
STURGEON BAY   SUNNY     70  54  56 NW9       29.95S
MANITOWOC      NOT AVBL
SHEBOYGAN      MOSUNNY   75  54  47 W14       29.95S
$$

LMZ563-521-522-541>543-041900-
LAKESHORE

STATION/POSITION TIME  TEMP    WIND        PRES    VSBY  WAVE
                       AIR SEA DIR/SP/G                  HT/PER
                 (UTC) (F)     (DEG/KT/KT) (MB)    (MI)  (FT/S)
SHEBOYGAN LKSHOR 1700   65        CALM     1014.3S
KEWAUNEE LKSHORE 1700   71     320/  8/ 11 1013.1F
ALGOMA MARINA    1742          310/  7/ 10   N/A
NORTHPORT PIER   1700   65     320/  7/ 10 1013.5R
N MID LAKE BUOY  1650   63 69   CALM  /  2 1013.2R         1/ 3
SISTER BAY LKSHO 1703   71     280/  5/  6   N/A
CHAMBERS ISLAND  1700   67     190/  3/  7 1013.2F
MENOMINEE LKSHOR 1700   63     160/  9/ 11 1014.0F
$$



USA.gov is the U.S. government's official web portal to all federal, state and local government web resources and services.